Flag for Norway Weather past 2 weeks in Longyearbyen, Svalbard, Norway

Now
36 °F

Drizzle. Partly sunny.


Feels Like: 32 °F
Forecast: 38 / 43 °F
Wind: 5 mph from West

Location: Svalbard Lufthavn

Current Time: Oct 2, 2014 at 5:27:56 PM

Latest Report: Oct 2, 2014 at 4:20 PM


Visibility: N/A

Pressure: 29.62 "Hg

Humidity: 100%

Dew point: 36 °F

Location of LongyearbyenLocation

Historic Weather in Longyearbyen — Graph

°F

Longyearbyen temperature yesterday

Maximum temperature yesterday: 34 °F (at 9:50 PM)
Minimum temperature yesterday: 19 °F (at 7:50 AM)
Average temperature yesterday: 26 °F

Past Weeks' High & Low Weather Summary

 TemperatureHumidityPressure
High41 °F (Sep 24, 9:50 AM)100% (Oct 2, 2:20 PM)30.18 "Hg (Oct 2, 2:20 PM)
Low19 °F (Oct 1, 7:50 AM)50% (Sep 30, 11:50 AM)29.06 "Hg (Sep 27, 12:50 AM)
Average32 °F72%29.70 "Hg
* Reported Sep 17 4:50 PM — Oct 2 4:20 PM, Longyearbyen, Weather by CustomWeather, © 2014

Note: Actual official high and low records may vary slightly from our data, if they occured in-between our weather recording intervals... More about our weather records

Advertising

Longyearbyen weather history for previous 24 hours

 ConditionsComfort  
Time TempWeatherWind HumidityBarometerVisibility
4:20 PM
Oct 2
36 °FDrizzle. Partly sunny.5 mph100%29.62 "HgN/A
3:50 PM37 °FSleet. Broken clouds.7 mph93%29.62 "HgN/A
2:50 PM36 °FFog.3 mph100%29.62 "Hg1 mi
2:20 PM36 °FFog.6 mph100%29.62 "Hg1 mi
1:50 PM37 °FFog.5 mph93%29.59 "Hg1 mi
12:50 PM37 °FDrizzle. Fog.6 mph93%29.59 "Hg3 mi
11:50 AM36 °FFog.9 mph93%29.56 "Hg3 mi
10:50 AM37 °FBroken clouds.1 mph87%29.56 "HgN/A
9:50 AM37 °FBroken clouds.1 mph87%29.56 "HgN/A
8:50 AM37 °FPartly sunny.2 mph93%29.53 "HgN/A
7:50 AM36 °FPartly cloudy.3 mph93%29.53 "HgN/A
6:50 AM39 °FPartly cloudy.5 mph75%29.53 "HgN/A
5:50 AM39 °FPassing clouds.18 mph75%29.50 "HgN/A
4:50 AM37 °FLight rain. Mostly cloudy.18 mph75%29.53 "HgN/A
3:50 AM36 °FLight rain. Overcast.24 mph81%29.56 "HgN/A
2:50 AM36 °FLight rain. Passing clouds.25 mph81%29.56 "HgN/A
1:50 AM36 °FLight rain. Passing clouds.24 mph81%29.59 "HgN/A
12:50 AM34 °FLight rain. Passing clouds.24 mph87%29.62 "HgN/A
11:50 PM
Oct 1
34 °FPassing clouds.23 mph81%29.65 "HgN/A
10:50 PM34 °FPassing clouds.23 mph75%29.68 "HgN/A
9:50 PM34 °FLight rain. Passing clouds.20 mph75%29.71 "HgN/A
7:50 PM32 °FLight freezing rain. Passing clouds.26 mph75%29.77 "HgN/A
6:50 PM32 °FLight rain. Partly sunny.21 mph75%29.80 "HgN/A
5:50 PM32 °FPartly sunny.14 mph75%29.83 "HgN/A
Weather by CustomWeather, © 2014

See weather overviewHow to use our weather pages